Regional Weather Roundup
Issued by NWS

Home | Current Version | Previous Version | Graphics & Text | Print | Product List | Glossary On
Versions: 1 2 3 4 5 6 7 8 9 10 11 12 13 14 15 16 17 18 19 20 21 22 23 24 25 26 27 28 29 30 31 32 33 34 35 36 37 38 39 40 41 42 43 44 45 46 47 48 49 50
000
ASUS43 KLMK 211002
RWRKY
KENTUCKY REGIONAL WEATHER ROUNDUP
NATIONAL WEATHER SERVICE LOUISVILLE KY
600 AM EDT FRI JUL 21 2017

NOTE "FAIR" INDICATES FEW OR NO CLOUDS BELOW 12,000 FEET
WITH NO SIGNIFICANT WEATHER AND/OR OBSTRUCTIONS TO VISIBILITY.

KYZ001>023-026-027-061>063-070>075-211100-
WESTERN AND SOUTH CENTRAL KENTUCKY

CITY           SKY/WX    TMP DP  RH WIND       PRES   REMARKS
PADUCAH        CLEAR     79  74  84 SW3       29.99S
HENDERSON      CLOUDY    75  73  93 CALM      29.99S
OWENSBORO      CLOUDY    75  73  93 CALM      30.00S
HOPKINSVILLE   CLEAR     77  75  94 CALM      30.02S
BOWLING GREEN  PTCLDY    77  74  90 CALM      30.03R
GLASGOW        NOT AVBL
$$

KYZ024-025-028>034-038-045-046-053-211100-
NORTH CENTRAL KENTUCKY

CITY           SKY/WX    TMP DP  RH WIND       PRES   REMARKS
LOUISVILLE/SDF CLOUDY    81  74  79 SW7       29.99S
LOUISVILLE/LOU CLOUDY    78  75  90 S5        30.00S
FORT KNOX      PTCLDY    73  73  99 CALM      30.00S
$$

KYZ035>037-039>044-047>052-055>060-089>105-211100-
NORTHEAST KENTUCKY

CITY           SKY/WX    TMP DP  RH WIND       PRES   REMARKS
LEXINGTON      CLOUDY    75  71  87 SW5       30.03S FOG
COVINGTON      CLOUDY    77  75  93 SW6       29.99S
FRANKFORT      MOCLDY    76  71  85 CALM      30.01R
$$

KYZ054-064>069-076>088-106>120-211100-
SOUTHEAST KENTUCKY

CITY           SKY/WX    TMP DP  RH WIND       PRES   REMARKS
JACKSON        CLOUDY    73  71  93 CALM      30.06R
LONDON         MOCLDY    72  70  93 CALM      30.06S FOG
SOMERSET       NOT AVBL
MIDDLESBORO    FOG       70  70 100 CALM      30.08S VSB 1/2
MONTICELLO     SUNNY     70  69  97 W10       30.07S FOG
$$





USA.gov is the U.S. government's official web portal to all federal, state and local government web resources and services.